Language: 


Des rapports , des résumés tant et plus, au choix de chacun....


Données statistiques de la station
Quotidien Rapport Décembre 19, 2017 Unités:  Anglais    Métrique   les deux
« Précédent Jour
Suivant Jour »
Quotidien Hebdomadaire Mensuel Annuel Actuel
  Haut: Bas: Moyen:
Température: TemperatureC °F 1.0 °F 3.9 °F
Pt de rosée: DewpointC °F 1.0 °F 4.1 °F
Humidité: Humidity % 95 % 98 %
Vitesse du vent: WindSpeedKMH mph 0.0 mph 3 mph
Rafales: WindSpeedGustKMH mph - -
Vent:- - WSW
Pression: PressurehPa in 1031.0 in -
Précipitation: 0.0 in    
Historical Graphs
 
 
Données statistiques pour Décembre 19, 2017
Heure Température Point de rosée Pression Vent Vitesse du vent Refales Humidité Pluie (taux horaire)
TemperatureC °F DewpointC °F PressurehPa in Calm     Humidity % HourlyPrecipMM in
00:01 2.6 °F 3.0 °F 1031.0 in Calm   3.2 mph 97 % 0.0 in
00:02 2.4 °F 2.0 °F 1031.0 in Calm   3.2 mph 97 % 0.0 in
00:07 2.3 °F 2.0 °F 1031.0 in Calm   4.3 mph 97 % 0.0 in
00:10 2.1 °F 2.0 °F 1031.0 in Calm   4.3 mph 98 % 0.0 in
00:16 1.9 °F 2.0 °F 1031.0 in Calm   4.3 mph 98 % 0.0 in
00:19 1.8 °F 2.0 °F 1031.0 in Calm   4.3 mph 98 % 0.0 in
00:24 1.8 °F 2.0 °F 1031.0 in NNW 2.6 mph 5.5 mph 98 % 0.0 in
00:29 1.8 °F 2.0 °F 1031.0 in Calm   5.0 mph 98 % 0.0 in
00:35 1.9 °F 2.0 °F 1031.0 in Calm   4.7 mph 98 % 0.0 in
00:38 1.9 °F 2.0 °F 1031.0 in West 5.5 mph 7.2 mph 98 % 0.0 in
00:43 1.9 °F 2.0 °F 1031.0 in Calm   7.2 mph 98 % 0.0 in
00:46 1.9 °F 2.0 °F 1031.0 in Calm   7.2 mph 98 % 0.0 in
00:51 2.1 °F 2.0 °F 1031.0 in Calm   5.8 mph 98 % 0.0 in
00:52 2.1 °F 2.0 °F 1031.0 in Calm   5.8 mph 98 % 0.0 in
00:57 2.1 °F 2.0 °F 1031.0 in WNW 2.6 mph 5.8 mph 98 % 0.0 in
00:58 2.1 °F 2.0 °F 1031.0 in Calm   4.0 mph 98 % 0.0 in
01:03 1.9 °F 2.0 °F 1031.0 in Calm   3.2 mph 98 % 0.0 in
01:08 1.7 °F 2.0 °F 1031.0 in Calm   3.5 mph 98 % 0.0 in
01:09 1.7 °F 2.0 °F 1031.0 in Calm   3.5 mph 98 % 0.0 in
01:14 1.7 °F 2.0 °F 1031.0 in WNW 1.4 mph 3.2 mph 98 % 0.0 in
01:15 1.7 °F 2.0 °F 1031.0 in Calm   3.5 mph 98 % 0.0 in
01:20 1.9 °F 2.0 °F 1031.0 in Calm   3.5 mph 98 % 0.0 in
01:22 2.0 °F 2.0 °F 1031.0 in Calm   3.5 mph 98 % 0.0 in
01:26 2.0 °F 2.0 °F 1031.0 in Calm     98 % 0.0 in
01:27 2.1 °F 2.0 °F 1031.0 in Calm     98 % 0.0 in
01:32 2.1 °F 2.0 °F 1031.0 in Calm   1.4 mph 98 % 0.0 in
01:35 2.1 °F 2.0 °F 1031.0 in Calm   5.5 mph 98 % 0.0 in
01:40 2.0 °F 2.0 °F 1031.0 in Calm   5.5 mph 98 % 0.0 in
01:44 1.9 °F 2.0 °F 1031.0 in Calm   3.5 mph 98 % 0.0 in
01:49 1.7 °F 2.0 °F 1031.0 in WNW 2.6 mph 2.6 mph 98 % 0.0 in
01:54 1.7 °F 2.0 °F 1031.0 in Calm   4.7 mph 98 % 0.0 in
01:55 1.7 °F 2.0 °F 1031.0 in Calm   4.7 mph 98 % 0.0 in
02:00 1.7 °F 2.0 °F 1031.0 in Calm   4.7 mph 98 % 0.0 in
02:05 1.9 °F 2.0 °F 1031.0 in Calm     98 % 0.0 in
02:06 1.9 °F 2.0 °F 1031.0 in Calm     98 % 0.0 in
02:11 2.1 °F 2.0 °F 1032.1 in Calm     98 % 0.0 in
02:12 2.2 °F 2.0 °F 1032.1 in Calm     98 % 0.0 in
02:16 2.3 °F 3.0 °F 1032.1 in Calm     98 % 0.0 in
02:18 2.3 °F 3.0 °F 1032.1 in Calm     98 % 0.0 in
02:22 2.4 °F 3.0 °F 1032.1 in Calm     98 % 0.0 in
02:23 2.4 °F 3.0 °F 1032.1 in Calm   4.0 mph 98 % 0.0 in
02:28 2.4 °F 3.0 °F 1031.0 in Calm   4.0 mph 98 % 0.0 in
02:29 2.4 °F 3.0 °F 1031.0 in Calm   4.0 mph 98 % 0.0 in
02:34 2.5 °F 3.0 °F 1031.0 in Calm   7.6 mph 98 % 0.0 in
02:36 2.5 °F 3.0 °F 1031.0 in Calm   7.6 mph 98 % 0.0 in
02:38 2.6 °F 3.0 °F 1031.0 in Calm   7.6 mph 98 % 0.0 in
02:43 2.7 °F 3.0 °F 1031.0 in Calm   1.8 mph 98 % 0.0 in
02:44 2.7 °F 3.0 °F 1031.0 in Calm   1.8 mph 98 % 0.0 in
02:49 2.6 °F 3.0 °F 1031.0 in Calm   3.5 mph 98 % 0.0 in
02:54 2.5 °F 3.0 °F 1031.0 in Calm   3.5 mph 98 % 0.0 in
02:57 2.4 °F 3.0 °F 1032.1 in Calm   3.5 mph 98 % 0.0 in
03:02 2.3 °F 3.0 °F 1032.1 in West 2.1 mph 4.0 mph 98 % 0.0 in
03:03 2.2 °F 2.0 °F 1032.1 in Calm   4.0 mph 98 % 0.0 in
03:08 2.0 °F 2.0 °F 1032.1 in Calm   4.0 mph 98 % 0.0 in
03:10 1.9 °F 2.0 °F 1032.1 in Calm   4.0 mph 98 % 0.0 in
03:15 1.7 °F 2.0 °F 1032.1 in Calm   1.4 mph 98 % 0.0 in
03:18 1.7 °F 2.0 °F 1032.1 in Calm     98 % 0.0 in
03:23 1.7 °F 2.0 °F 1032.1 in Calm     98 % 0.0 in
03:25 1.6 °F 2.0 °F 1032.1 in Calm     98 % 0.0 in
03:30 1.6 °F 2.0 °F 1032.1 in Calm     98 % 0.0 in
03:35 1.4 °F 1.0 °F 1032.1 in Calm     98 % 0.0 in
03:36 1.3 °F 1.0 °F 1032.1 in Calm     98 % 0.0 in
03:37 1.3 °F 1.0 °F 1032.1 in Calm     98 % 0.0 in
03:42 1.4 °F 1.0 °F 1032.1 in Calm     98 % 0.0 in
03:43 1.4 °F 1.0 °F 1032.1 in Calm     98 % 0.0 in
03:46 1.4 °F 1.0 °F 1032.1 in Calm     98 % 0.0 in
03:50 1.2 °F 1.0 °F 1032.1 in Calm     98 % 0.0 in
03:55 1.1 °F 1.0 °F 1032.1 in Calm     98 % 0.0 in
03:58 1.1 °F 1.0 °F 1032.1 in Calm     98 % 0.0 in
04:01 1.0 °F 1.0 °F 1032.1 in Calm     98 % 0.0 in
04:06 1.0 °F 1.0 °F 1032.1 in Calm     98 % 0.0 in
04:09 1.0 °F 1.0 °F 1032.1 in Calm     98 % 0.0 in
04:15 1.0 °F 1.0 °F 1032.1 in Calm     98 % 0.0 in
04:17 1.1 °F 1.0 °F 1032.1 in Calm     98 % 0.0 in
04:19 1.1 °F 1.0 °F 1032.1 in Calm     98 % 0.0 in
04:24 1.2 °F 1.0 °F 1032.1 in Calm     98 % 0.0 in
04:30 1.2 °F 1.0 °F 1032.1 in Calm     98 % 0.0 in
04:36 1.3 °F 1.0 °F 1032.1 in Calm     98 % 0.0 in
04:42 1.3 °F 1.0 °F 1032.1 in Calm     98 % 0.0 in
04:43 1.3 °F 1.0 °F 1032.1 in Calm     98 % 0.0 in
04:45 1.3 °F 1.0 °F 1032.1 in Calm     98 % 0.0 in
04:50 1.3 °F 1.0 °F 1032.1 in Calm     98 % 0.0 in
04:52 1.3 °F 1.0 °F 1032.1 in Calm     98 % 0.0 in
04:57 1.4 °F 1.0 °F 1033.1 in Calm     98 % 0.0 in
05:02 1.5 °F 2.0 °F 1033.1 in Calm     98 % 0.0 in
05:05 1.5 °F 2.0 °F 1033.1 in Calm     98 % 0.0 in
05:07 1.5 °F 2.0 °F 1033.1 in Calm     98 % 0.0 in
05:11 1.5 °F 2.0 °F 1033.1 in Calm     98 % 0.0 in
05:12 1.6 °F 2.0 °F 1033.1 in Calm     98 % 0.0 in
05:17 1.6 °F 2.0 °F 1033.1 in Calm     98 % 0.0 in
05:20 1.6 °F 2.0 °F 1033.1 in Calm     98 % 0.0 in
05:21 1.6 °F 2.0 °F 1033.1 in Calm     98 % 0.0 in
05:26 1.6 °F 2.0 °F 1033.1 in Calm     98 % 0.0 in
05:31 1.6 °F 2.0 °F 1033.1 in Calm     98 % 0.0 in
05:32 1.6 °F 2.0 °F 1033.1 in Calm     98 % 0.0 in
05:37 1.6 °F 2.0 °F 1033.1 in Calm     98 % 0.0 in
05:41 1.6 °F 2.0 °F 1033.1 in Calm     98 % 0.0 in
05:46 1.6 °F 2.0 °F 1033.1 in Calm     98 % 0.0 in
05:47 1.6 °F 2.0 °F 1033.1 in Calm     98 % 0.0 in
05:52 1.5 °F 2.0 °F 1033.1 in Calm     98 % 0.0 in
05:53 1.5 °F 2.0 °F 1033.1 in Calm     98 % 0.0 in
05:58 1.4 °F 1.0 °F 1032.1 in Calm     98 % 0.0 in
06:01 1.4 °F 1.0 °F 1032.1 in Calm     98 % 0.0 in
06:06 1.3 °F 1.0 °F 1032.1 in Calm     98 % 0.0 in
06:10 1.3 °F 1.0 °F 1032.1 in Calm     98 % 0.0 in
06:12 1.3 °F 1.0 °F 1033.1 in Calm     98 % 0.0 in
06:17 1.3 °F 1.0 °F 1033.1 in Calm     98 % 0.0 in
06:19 1.3 °F 1.0 °F 1033.1 in Calm     98 % 0.0 in
06:24 1.3 °F 1.0 °F 1033.1 in Calm   1.8 mph 98 % 0.0 in
06:28 1.3 °F 1.0 °F 1033.1 in Calm   5.0 mph 98 % 0.0 in
06:32 1.4 °F 1.0 °F 1033.1 in West 5.8 mph 5.8 mph 98 % 0.0 in
06:37 1.6 °F 2.0 °F 1033.1 in Calm   5.8 mph 98 % 0.0 in
06:42 1.7 °F 2.0 °F 1033.1 in Calm   7.6 mph 98 % 0.0 in
06:43 1.7 °F 2.0 °F 1033.1 in West 4.3 mph 7.6 mph 98 % 0.0 in
06:48 1.9 °F 2.0 °F 1033.1 in WSW 7.6 mph 7.6 mph 98 % 0.0 in
06:53 2.1 °F 2.0 °F 1033.1 in Calm   7.6 mph 98 % 0.0 in
06:54 2.1 °F 2.0 °F 1033.1 in WSW 5.8 mph 7.6 mph 98 % 0.0 in
06:59 2.2 °F 2.0 °F 1033.1 in WSW 6.4 mph 9.0 mph 98 % 0.0 in
07:00 2.3 °F 3.0 °F 1033.1 in West 5.5 mph 9.0 mph 98 % 0.0 in
07:05 2.4 °F 3.0 °F 1033.1 in WSW 7.9 mph 9.0 mph 98 % 0.0 in
07:06 2.4 °F 3.0 °F 1033.1 in WSW 10.1 mph 10.1 mph 98 % 0.0 in
07:11 2.6 °F 3.0 °F 1033.1 in WSW 6.1 mph 10.1 mph 98 % 0.0 in
07:15 2.6 °F 3.0 °F 1033.1 in WSW 10.1 mph 10.1 mph 98 % 0.0 in
07:20 2.7 °F 3.0 °F 1033.1 in West 5.5 mph 10.1 mph 98 % 0.0 in
07:23 2.7 °F 3.0 °F 1033.1 in West 7.9 mph 10.1 mph 98 % 0.0 in
07:24 2.8 °F 3.0 °F 1033.1 in West 4.3 mph 10.1 mph 98 % 0.0 in
07:29 2.8 °F 3.0 °F 1034.1 in West 6.9 mph 9.7 mph 98 % 0.0 in
07:34 2.8 °F 3.0 °F 1034.1 in SW 6.9 mph 10.5 mph 98 % 0.0 in
07:39 2.8 °F 3.0 °F 1034.1 in West 6.4 mph 10.5 mph 98 % 0.0 in
07:40 2.8 °F 3.0 °F 1033.1 in WSW 6.4 mph 10.5 mph 98 % 0.0 in
07:44 2.7 °F 3.0 °F 1033.1 in WSW 9.0 mph 9.3 mph 98 % 0.0 in
07:46 2.7 °F 3.0 °F 1033.1 in WSW 8.7 mph 10.5 mph 98 % 0.0 in
07:51 2.6 °F 3.0 °F 1033.1 in WSW 10.1 mph 11.6 mph 98 % 0.0 in
07:55 2.6 °F 3.0 °F 1033.1 in WSW 9.3 mph 13.7 mph 98 % 0.0 in
07:58 2.6 °F 3.0 °F 1033.1 in WSW 7.9 mph 13.7 mph 98 % 0.0 in
08:02 2.6 °F 3.0 °F 1033.1 in WSW 9.3 mph 10.5 mph 98 % 0.0 in
08:03 2.5 °F 3.0 °F 1033.1 in WSW 8.7 mph 10.5 mph 98 % 0.0 in
08:08 2.5 °F 3.0 °F 1033.1 in WSW 7.6 mph 10.5 mph 98 % 0.0 in
08:09 2.5 °F 3.0 °F 1033.1 in WSW 6.4 mph 10.5 mph 98 % 0.0 in
08:13 2.5 °F 3.0 °F 1034.1 in WSW 9.7 mph 10.5 mph 98 % 0.0 in
08:18 2.5 °F 3.0 °F 1034.1 in WSW 6.4 mph 9.7 mph 98 % 0.0 in
08:23 2.5 °F 3.0 °F 1034.1 in West 7.9 mph 11.6 mph 98 % 0.0 in
08:26 2.4 °F 3.0 °F 1034.1 in WSW 6.9 mph 11.6 mph 98 % 0.0 in
08:30 2.4 °F 3.0 °F 1034.1 in WSW 7.2 mph 11.6 mph 98 % 0.0 in
08:34 2.4 °F 3.0 °F 1034.1 in WSW 9.0 mph 10.1 mph 98 % 0.0 in
08:39 2.4 °F 3.0 °F 1034.1 in WSW 7.9 mph 9.0 mph 98 % 0.0 in
08:42 2.3 °F 3.0 °F 1034.1 in West 4.3 mph 9.0 mph 98 % 0.0 in
08:45 2.3 °F 3.0 °F 1034.1 in West 5.0 mph 9.0 mph 98 % 0.0 in
08:47 2.3 °F 3.0 °F 1034.1 in Calm   9.0 mph 98 % 0.0 in
08:52 2.3 °F 3.0 °F 1034.1 in West 5.5 mph 6.4 mph 98 % 0.0 in
08:54 2.3 °F 3.0 °F 1034.1 in Calm   6.4 mph 98 % 0.0 in
08:59 2.3 °F 3.0 °F 1034.1 in Calm   6.1 mph 98 % 0.0 in
09:03 2.3 °F 3.0 °F 1034.1 in Calm   5.0 mph 98 % 0.0 in
09:06 2.3 °F 3.0 °F 1034.1 in Calm     98 % 0.0 in
09:10 2.4 °F 3.0 °F 1034.1 in Calm     98 % 0.0 in
09:12 2.3 °F 3.0 °F 1035.1 in SSW 5.5 mph 5.5 mph 98 % 0.0 in
09:17 2.3 °F 3.0 °F 1035.1 in Calm   5.5 mph 98 % 0.0 in
09:19 2.3 °F 3.0 °F 1035.1 in Calm   5.5 mph 98 % 0.0 in
09:24 2.3 °F 3.0 °F 1035.1 in Calm     98 % 0.0 in
09:27 2.3 °F 3.0 °F 1034.1 in Calm     98 % 0.0 in
09:32 2.3 °F 3.0 °F 1034.1 in Calm     98 % 0.0 in
09:37 2.4 °F 3.0 °F 1034.1 in Calm     98 % 0.0 in
09:38 2.4 °F 3.0 °F 1034.1 in Calm     98 % 0.0 in
09:43 2.3 °F 3.0 °F 1035.1 in WSW 6.9 mph 8.7 mph 98 % 0.0 in
09:48 2.3 °F 3.0 °F 1035.1 in WSW 6.1 mph 8.7 mph 98 % 0.0 in
09:51 2.3 °F 3.0 °F 1035.1 in WSW 6.1 mph 8.7 mph 98 % 0.0 in
09:56 2.3 °F 3.0 °F 1035.1 in Calm   7.6 mph 98 % 0.0 in
09:57 2.4 °F 3.0 °F 1035.1 in Calm   6.1 mph 98 % 0.0 in
10:02 2.4 °F 3.0 °F 1035.1 in West 4.7 mph 6.1 mph 98 % 0.0 in
10:03 2.4 °F 3.0 °F 1035.1 in West 4.7 mph 6.1 mph 98 % 0.0 in
10:08 2.3 °F 3.0 °F 1035.1 in WSW 7.6 mph 9.0 mph 98 % 0.0 in
10:11 2.3 °F 3.0 °F 1035.1 in WSW 6.1 mph 9.0 mph 98 % 0.0 in
10:16 2.3 °F 3.0 °F 1035.1 in WSW 6.1 mph 9.3 mph 98 % 0.0 in
10:21 2.3 °F 3.0 °F 1035.1 in WSW 6.4 mph 9.3 mph 98 % 0.0 in
10:27 2.3 °F 3.0 °F 1035.1 in WSW 7.2 mph 8.7 mph 98 % 0.0 in
10:32 2.3 °F 3.0 °F 1035.1 in West 5.8 mph 9.3 mph 98 % 0.0 in
10:33 2.3 °F 3.0 °F 1035.1 in West 4.7 mph 9.3 mph 98 % 0.0 in
10:38 2.4 °F 3.0 °F 1035.1 in Calm   9.3 mph 98 % 0.0 in
10:43 2.5 °F 3.0 °F 1034.1 in Calm   7.9 mph 98 % 0.0 in
10:44 2.5 °F 3.0 °F 1034.1 in SW 5.0 mph 5.8 mph 98 % 0.0 in
10:45 2.5 °F 3.0 °F 1034.1 in Calm   5.8 mph 98 % 0.0 in
10:50 2.6 °F 3.0 °F 1034.1 in Calm   5.5 mph 98 % 0.0 in
10:51 2.6 °F 3.0 °F 1034.1 in WSW 6.4 mph 7.6 mph 98 % 0.0 in
10:58 2.7 °F 3.0 °F 1035.1 in SW 6.4 mph 7.9 mph 98 % 0.0 in
11:00 2.7 °F 3.0 °F 1035.1 in Calm   7.9 mph 98 % 0.0 in
11:03 2.7 °F 3.0 °F 1035.1 in WSW 6.9 mph 9.0 mph 98 % 0.0 in
11:05 2.7 °F 3.0 °F 1035.1 in WSW 6.4 mph 9.0 mph 98 % 0.0 in
11:10 2.8 °F 3.0 °F 1035.1 in WSW 6.9 mph 9.0 mph 98 % 0.0 in
11:12 2.8 °F 3.0 °F 1035.1 in WSW 7.6 mph 9.0 mph 98 % 0.0 in
11:13 2.8 °F 3.0 °F 1035.1 in Calm   7.6 mph 98 % 0.0 in
11:18 2.8 °F 3.0 °F 1035.1 in WSW 2.6 mph 8.7 mph 98 % 0.0 in
11:20 2.8 °F 3.0 °F 1035.1 in WSW 8.7 mph 9.0 mph 98 % 0.0 in
11:24 2.8 °F 3.0 °F 1035.1 in Calm   9.3 mph 98 % 0.0 in
11:29 2.9 °F 3.0 °F 1034.1 in Calm   9.3 mph 98 % 0.0 in
11:34 3.0 °F 3.0 °F 1034.1 in Calm   6.9 mph 98 % 0.0 in
11:37 3.3 °F 3.0 °F 1034.1 in Calm     98 % 0.0 in
11:39 3.4 °F 3.0 °F 1034.1 in Calm     98 % 0.0 in
11:44 3.7 °F 4.0 °F 1035.1 in Calm     98 % 0.0 in
11:46 3.7 °F 4.0 °F 1035.1 in Calm     98 % 0.0 in
11:47 3.7 °F 4.0 °F 1035.1 in Calm     98 % 0.0 in
11:52 3.7 °F 4.0 °F 1035.1 in WSW 4.0 mph 4.0 mph 98 % 0.0 in
11:56 4.2 °F 4.0 °F 1035.1 in Calm   5.8 mph 98 % 0.0 in
12:01 4.6 °F 5.0 °F 1035.1 in Calm   6.4 mph 98 % 0.0 in
12:02 4.6 °F 5.0 °F 1035.1 in Calm   6.4 mph 98 % 0.0 in
12:08 4.9 °F 5.0 °F 1035.1 in WSW 5.5 mph 6.4 mph 98 % 0.0 in
12:13 5.0 °F 5.0 °F 1035.1 in Calm   6.1 mph 98 % 0.0 in
12:28 5.4 °F 6.0 °F 1035.1 in WSW 6.9 mph 6.9 mph 98 % 0.0 in
12:31 5.5 °F 6.0 °F 1035.1 in Calm   6.9 mph 98 % 0.0 in
12:32 5.6 °F 6.0 °F 1035.1 in WSW 5.0 mph 6.9 mph 98 % 0.0 in
12:37 5.7 °F 6.0 °F 1035.1 in West 9.3 mph 9.3 mph 98 % 0.0 in
12:39 5.7 °F 6.0 °F 1035.1 in WSW 1.8 mph 9.3 mph 98 % 0.0 in
12:44 6.4 °F 6.0 °F 1035.1 in WSW 6.1 mph 9.3 mph 98 % 0.0 in
12:45 6.5 °F 7.0 °F 1035.1 in SW 6.1 mph 9.3 mph 98 % 0.0 in
12:50 6.7 °F 7.0 °F 1035.1 in Calm   9.0 mph 98 % 0.0 in
12:51 6.7 °F 7.0 °F 1035.1 in Calm   9.0 mph 98 % 0.0 in
12:55 6.7 °F 7.0 °F 1035.1 in WSW 6.1 mph 9.0 mph 98 % 0.0 in
12:57 6.8 °F 7.0 °F 1035.1 in WSW 9.3 mph 9.7 mph 98 % 0.0 in
13:01 6.7 °F 7.0 °F 1035.1 in Calm   9.7 mph 98 % 0.0 in
13:06 6.6 °F 7.0 °F 1035.1 in WSW 8.7 mph 9.7 mph 98 % 0.0 in
13:07 6.6 °F 7.0 °F 1035.1 in WSW 8.7 mph 9.7 mph 98 % 0.0 in
13:12 6.8 °F 7.0 °F 1035.1 in WSW 6.1 mph 9.3 mph 98 % 0.0 in
13:13 6.8 °F 7.0 °F 1035.1 in WSW 6.9 mph 9.3 mph 98 % 0.0 in
13:18 7.1 °F 7.0 °F 1035.1 in West 6.1 mph 9.3 mph 98 % 0.0 in
13:23 7.5 °F 8.0 °F 1035.1 in WSW 9.3 mph 9.3 mph 98 % 0.0 in
13:25 7.7 °F 8.0 °F 1035.1 in SW 5.8 mph 9.7 mph 98 % 0.0 in
13:28 7.9 °F 8.0 °F 1034.1 in WSW 6.1 mph 10.1 mph 98 % 0.0 in
13:33 7.9 °F 8.0 °F 1034.1 in WSW 6.9 mph 10.5 mph 98 % 0.0 in
13:38 7.8 °F 8.0 °F 1034.1 in West 7.9 mph 11.1 mph 98 % 0.0 in
13:39 7.8 °F 8.0 °F 1034.1 in West 9.0 mph 11.1 mph 98 % 0.0 in
13:41 7.8 °F 8.0 °F 1034.1 in WSW 9.0 mph 11.9 mph 98 % 0.0 in
13:47 7.8 °F 8.0 °F 1034.1 in WSW 7.9 mph 11.9 mph 98 % 0.0 in
13:48 7.9 °F 8.0 °F 1034.1 in WSW 7.2 mph 11.9 mph 98 % 0.0 in
13:53 8.0 °F 8.0 °F 1034.1 in WSW 8.7 mph 12.6 mph 98 % 0.0 in
13:54 8.0 °F 8.0 °F 1034.1 in WSW 9.7 mph 12.6 mph 98 % 0.0 in
13:59 8.2 °F 8.0 °F 1034.1 in WSW 10.5 mph 12.6 mph 98 % 0.0 in
14:03 8.3 °F 9.0 °F 1034.1 in WSW 9.3 mph 12.2 mph 98 % 0.0 in
14:08 8.5 °F 9.0 °F 1034.1 in WSW 9.7 mph 12.2 mph 98 % 0.0 in
14:13 8.5 °F 9.0 °F 1034.1 in WSW 9.7 mph 12.2 mph 98 % 0.0 in
14:14 8.6 °F 9.0 °F 1034.1 in WSW 7.9 mph 12.2 mph 98 % 0.0 in
14:16 8.6 °F 9.0 °F 1034.1 in WSW 9.0 mph 12.2 mph 98 % 0.0 in
14:21 8.8 °F 9.0 °F 1034.1 in WSW 9.3 mph 11.6 mph 98 % 0.0 in
14:26 8.9 °F 9.0 °F 1034.1 in WSW 9.0 mph 11.9 mph 98 % 0.0 in
14:27 8.9 °F 9.0 °F 1034.1 in WSW 6.4 mph 11.9 mph 98 % 0.0 in
14:31 8.9 °F 9.0 °F 1034.1 in WSW 8.7 mph 11.9 mph 98 % 0.0 in
14:36 8.9 °F 9.0 °F 1034.1 in WSW 8.7 mph 10.5 mph 98 % 0.0 in
14:41 8.8 °F 9.0 °F 1034.1 in West 11.6 mph 15.8 mph 98 % 0.0 in
14:42 8.8 °F 9.0 °F 1034.1 in WSW 12.2 mph 15.8 mph 98 % 0.0 in
14:47 8.7 °F 9.0 °F 1034.1 in West 10.5 mph 15.8 mph 98 % 0.0 in
14:48 8.7 °F 9.0 °F 1034.1 in West 11.9 mph 15.8 mph 98 % 0.0 in
14:53 8.8 °F 9.0 °F 1034.1 in WSW 13.0 mph 14.3 mph 98 % 0.0 in
14:58 8.8 °F 9.0 °F 1033.1 in WSW 13.0 mph 14.3 mph 98 % 0.0 in
15:04 8.6 °F 9.0 °F 1033.1 in WSW 9.0 mph 14.3 mph 97 % 0.0 in
15:05 8.6 °F 9.0 °F 1033.1 in WSW 14.0 mph 14.3 mph 97 % 0.0 in
15:06 8.5 °F 9.0 °F 1033.1 in WSW 11.6 mph 14.0 mph 97 % 0.0 in
15:11 8.4 °F 8.0 °F 1033.1 in WSW 10.5 mph 14.0 mph 96 % 0.0 in
15:14 8.3 °F 8.0 °F 1033.1 in West 9.3 mph 14.0 mph 96 % 0.0 in
15:15 8.3 °F 8.0 °F 1033.1 in WSW 9.3 mph 14.0 mph 96 % 0.0 in
15:20 8.2 °F 8.0 °F 1033.1 in WSW 12.6 mph 15.8 mph 95 % 0.0 in
15:21 8.1 °F 8.0 °F 1033.1 in WSW 12.2 mph 15.8 mph 95 % 0.0 in
15:23 8.1 °F 8.0 °F 1033.1 in WSW 10.5 mph 15.8 mph 95 % 0.0 in
15:26 8.1 °F 8.0 °F 1033.1 in WSW 13.0 mph 14.8 mph 95 % 0.0 in
15:31 8.1 °F 8.0 °F 1033.1 in West 10.5 mph 14.8 mph 95 % 0.0 in
15:36 8.0 °F 8.0 °F 1033.1 in WSW 8.7 mph 14.3 mph 95 % 0.0 in
15:38 8.0 °F 8.0 °F 1033.1 in West 10.5 mph 14.0 mph 95 % 0.0 in
15:43 8.0 °F 8.0 °F 1033.1 in WSW 9.3 mph 14.0 mph 95 % 0.0 in
15:45 7.9 °F 8.0 °F 1033.1 in West 9.3 mph 14.0 mph 96 % 0.0 in
15:50 7.7 °F 7.0 °F 1033.1 in WSW 9.7 mph 14.0 mph 96 % 0.0 in
15:52 7.6 °F 7.0 °F 1033.1 in WSW 11.9 mph 14.0 mph 95 % 0.0 in
15:57 7.4 °F 7.0 °F 1033.1 in WSW 11.6 mph 13.7 mph 96 % 0.0 in
15:58 7.4 °F 7.0 °F 1033.1 in West 10.1 mph 13.7 mph 96 % 0.0 in
16:01 7.3 °F 7.0 °F 1033.1 in WSW 7.9 mph 13.7 mph 96 % 0.0 in
16:06 7.1 °F 7.0 °F 1033.1 in WSW 9.7 mph 12.2 mph 96 % 0.0 in
16:07 7.0 °F 7.0 °F 1033.1 in WSW 10.1 mph 12.2 mph 96 % 0.0 in
16:12 6.8 °F 6.0 °F 1033.1 in WSW 9.7 mph 12.2 mph 96 % 0.0 in
16:14 6.8 °F 6.0 °F 1033.1 in WSW 7.9 mph 12.2 mph 96 % 0.0 in
16:17 6.7 °F 6.0 °F 1033.1 in WSW 6.1 mph 11.9 mph 97 % 0.0 in
16:21 6.6 °F 6.0 °F 1033.1 in WSW 6.4 mph 10.5 mph 97 % 0.0 in
16:24 6.4 °F 6.0 °F 1033.1 in Calm   10.5 mph 97 % 0.0 in
16:29 6.3 °F 6.0 °F 1034.1 in West 7.9 mph 10.5 mph 97 % 0.0 in
16:30 6.2 °F 6.0 °F 1034.1 in West 7.2 mph 10.1 mph 97 % 0.0 in
16:34 6.1 °F 6.0 °F 1034.1 in WSW 9.0 mph 10.5 mph 97 % 0.0 in
16:39 5.9 °F 6.0 °F 1034.1 in WSW 7.9 mph 10.5 mph 97 % 0.0 in
16:40 5.9 °F 6.0 °F 1034.1 in West 9.7 mph 10.5 mph 98 % 0.0 in
16:44 5.8 °F 6.0 °F 1034.1 in WSW 9.0 mph 10.5 mph 98 % 0.0 in
16:47 5.6 °F 6.0 °F 1034.1 in WSW 6.9 mph 10.5 mph 98 % 0.0 in
16:49 5.5 °F 6.0 °F 1034.1 in WSW 8.7 mph 10.1 mph 98 % 0.0 in
16:53 5.3 °F 6.0 °F 1034.1 in WSW 7.9 mph 9.0 mph 98 % 0.0 in
16:58 5.1 °F 5.0 °F 1034.1 in WSW 6.9 mph 9.0 mph 98 % 0.0 in
17:01 5.1 °F 5.0 °F 1034.1 in WSW 9.3 mph 9.3 mph 98 % 0.0 in
17:06 5.0 °F 5.0 °F 1034.1 in WSW 8.7 mph 9.3 mph 98 % 0.0 in
17:11 4.9 °F 5.0 °F 1034.1 in WSW 7.9 mph 9.3 mph 98 % 0.0 in
17:16 4.8 °F 5.0 °F 1034.1 in WSW 5.8 mph 9.0 mph 98 % 0.0 in
17:21 4.7 °F 5.0 °F 1034.1 in Calm   9.0 mph 98 % 0.0 in
17:22 4.7 °F 5.0 °F 1034.1 in Calm   9.0 mph 98 % 0.0 in
17:27 4.8 °F 5.0 °F 1033.1 in Calm   5.8 mph 98 % 0.0 in
17:29 4.9 °F 5.0 °F 1033.1 in Calm   5.8 mph 98 % 0.0 in
17:34 4.9 °F 5.0 °F 1033.1 in Calm     98 % 0.0 in
17:39 5.1 °F 5.0 °F 1033.1 in Calm   5.5 mph 98 % 0.0 in
17:41 5.1 °F 5.0 °F 1034.1 in Calm   5.5 mph 98 % 0.0 in
17:46 5.1 °F 5.0 °F 1034.1 in Calm   5.5 mph 98 % 0.0 in
17:47 5.1 °F 5.0 °F 1034.1 in Calm     98 % 0.0 in
17:50 5.1 °F 5.0 °F 1034.1 in Calm     98 % 0.0 in
17:53 5.1 °F 5.0 °F 1034.1 in Calm     98 % 0.0 in
17:56 5.1 °F 5.0 °F 1034.1 in Calm     98 % 0.0 in
17:59 5.1 °F 5.0 °F 1034.1 in Calm     98 % 0.0 in
18:02 5.1 °F 5.0 °F 1034.1 in Calm     98 % 0.0 in
18:04 5.0 °F 5.0 °F 1034.1 in Calm     98 % 0.0 in
18:09 4.9 °F 5.0 °F 1034.1 in Calm     98 % 0.0 in
18:10 4.8 °F 5.0 °F 1034.1 in Calm     98 % 0.0 in
18:16 4.7 °F 5.0 °F 1034.1 in Calm     98 % 0.0 in
18:17 4.7 °F 5.0 °F 1034.1 in Calm     98 % 0.0 in
18:22 4.7 °F 5.0 °F 1034.1 in Calm     98 % 0.0 in
18:27 4.6 °F 5.0 °F 1033.1 in Calm     98 % 0.0 in
18:28 4.5 °F 5.0 °F 1033.1 in Calm     98 % 0.0 in
18:33 4.3 °F 4.0 °F 1033.1 in Calm     98 % 0.0 in
18:35 4.2 °F 4.0 °F 1033.1 in Calm     98 % 0.0 in
18:40 4.1 °F 4.0 °F 1033.1 in Calm   3.2 mph 98 % 0.0 in
18:41 4.0 °F 4.0 °F 1033.1 in Calm   3.2 mph 98 % 0.0 in
18:46 3.9 °F 4.0 °F 1033.1 in Calm   3.2 mph 98 % 0.0 in
18:51 3.8 °F 4.0 °F 1033.1 in Calm     98 % 0.0 in
18:53 3.8 °F 4.0 °F 1033.1 in Calm     98 % 0.0 in
18:58 3.8 °F 4.0 °F 1034.1 in Calm     98 % 0.0 in
19:03 3.7 °F 4.0 °F 1034.1 in Calm     98 % 0.0 in
19:08 3.7 °F 4.0 °F 1034.1 in Calm     98 % 0.0 in
19:13 3.7 °F 4.0 °F 1034.1 in Calm     98 % 0.0 in
19:17 3.7 °F 4.0 °F 1034.1 in Calm     98 % 0.0 in
19:22 3.8 °F 4.0 °F 1034.1 in Calm     98 % 0.0 in
19:24 3.9 °F 4.0 °F 1034.1 in Calm     98 % 0.0 in
19:28 4.0 °F 4.0 °F 1034.1 in Calm     98 % 0.0 in
19:32 3.9 °F 4.0 °F 1034.1 in Calm   2.6 mph 98 % 0.0 in
19:37 3.8 °F 4.0 °F 1034.1 in Calm   2.6 mph 98 % 0.0 in
19:41 3.8 °F 4.0 °F 1034.1 in Calm   2.6 mph 98 % 0.0 in
19:46 3.5 °F 4.0 °F 1034.1 in West 4.0 mph 4.7 mph 98 % 0.0 in
19:48 3.4 °F 3.0 °F 1034.1 in Calm   4.7 mph 98 % 0.0 in
19:53 3.1 °F 3.0 °F 1034.1 in Calm   4.7 mph 98 % 0.0 in
19:54 3.0 °F 3.0 °F 1034.1 in Calm   4.7 mph 98 % 0.0 in
19:59 2.9 °F 3.0 °F 1034.1 in Calm     98 % 0.0 in
20:01 2.9 °F 3.0 °F 1034.1 in Calm     98 % 0.0 in
20:06 2.9 °F 3.0 °F 1034.1 in Calm     98 % 0.0 in
20:11 3.0 °F 3.0 °F 1034.1 in Calm   4.0 mph 98 % 0.0 in
20:13 3.0 °F 3.0 °F 1034.1 in Calm   4.0 mph 98 % 0.0 in
20:18 3.1 °F 3.0 °F 1034.1 in Calm     98 % 0.0 in
20:23 3.2 °F 3.0 °F 1034.1 in Calm     98 % 0.0 in
20:25 3.2 °F 3.0 °F 1034.1 in Calm     98 % 0.0 in
20:30 3.4 °F 3.0 °F 1034.1 in Calm     98 % 0.0 in
20:32 3.4 °F 3.0 °F 1034.1 in Calm     98 % 0.0 in
20:37 3.6 °F 4.0 °F 1034.1 in Calm     98 % 0.0 in
20:38 3.6 °F 4.0 °F 1034.1 in Calm     98 % 0.0 in
20:39 3.7 °F 4.0 °F 1034.1 in Calm     98 % 0.0 in
20:44 3.8 °F 4.0 °F 1034.1 in Calm     98 % 0.0 in
20:48 3.8 °F 4.0 °F 1034.1 in Calm     98 % 0.0 in
20:50 3.9 °F 4.0 °F 1034.1 in Calm     98 % 0.0 in
20:55 4.0 °F 4.0 °F 1034.1 in Calm     98 % 0.0 in
21:00 4.2 °F 4.0 °F 1034.1 in Calm   7.6 mph 98 % 0.0 in
21:03 4.3 °F 4.0 °F 1034.1 in Calm   7.6 mph 98 % 0.0 in
21:08 4.5 °F 5.0 °F 1034.1 in Calm   4.7 mph 98 % 0.0 in
21:09 4.5 °F 5.0 °F 1034.1 in Calm   4.7 mph 98 % 0.0 in
21:14 4.6 °F 5.0 °F 1034.1 in Calm   3.5 mph 98 % 0.0 in
21:18 4.7 °F 5.0 °F 1034.1 in Calm     98 % 0.0 in
21:23 4.8 °F 5.0 °F 1034.1 in Calm     98 % 0.0 in
21:25 4.8 °F 5.0 °F 1034.1 in Calm     98 % 0.0 in
21:30 4.8 °F 5.0 °F 1034.1 in Calm     98 % 0.0 in
21:32 4.9 °F 5.0 °F 1034.1 in West 4.3 mph 4.3 mph 98 % 0.0 in
21:35 4.9 °F 5.0 °F 1034.1 in Calm   4.3 mph 98 % 0.0 in
21:40 5.0 °F 5.0 °F 1034.1 in Calm   5.8 mph 98 % 0.0 in
21:43 5.0 °F 5.0 °F 1034.1 in West 8.7 mph 8.7 mph 98 % 0.0 in
21:48 5.1 °F 5.0 °F 1034.1 in Calm   8.7 mph 98 % 0.0 in
21:49 5.1 °F 5.0 °F 1034.1 in Calm   8.7 mph 98 % 0.0 in
21:54 5.1 °F 5.0 °F 1034.1 in Calm   7.9 mph 98 % 0.0 in
21:55 5.2 °F 5.0 °F 1034.1 in Calm   7.6 mph 98 % 0.0 in
21:56 5.2 °F 5.0 °F 1034.1 in West 5.5 mph 6.9 mph 98 % 0.0 in
22:01 5.3 °F 6.0 °F 1034.1 in Calm   6.4 mph 98 % 0.0 in
22:06 5.3 °F 6.0 °F 1034.1 in Calm   5.5 mph 98 % 0.0 in
22:11 5.3 °F 6.0 °F 1034.1 in Calm     98 % 0.0 in
22:14 5.3 °F 6.0 °F 1034.1 in Calm     98 % 0.0 in
22:19 5.3 °F 6.0 °F 1034.1 in Calm     98 % 0.0 in
22:20 5.3 °F 6.0 °F 1034.1 in Calm     98 % 0.0 in
22:22 5.3 °F 6.0 °F 1034.1 in Calm     98 % 0.0 in
22:27 5.3 °F 6.0 °F 1034.1 in Calm     98 % 0.0 in
22:29 5.3 °F 6.0 °F 1034.1 in Calm     98 % 0.0 in
22:34 5.3 °F 6.0 °F 1034.1 in Calm   3.2 mph 98 % 0.0 in
22:36 5.3 °F 6.0 °F 1034.1 in Calm   3.2 mph 98 % 0.0 in
22:40 5.4 °F 6.0 °F 1034.1 in Calm   5.0 mph 98 % 0.0 in
22:42 5.4 °F 6.0 °F 1034.1 in Calm   5.0 mph 98 % 0.0 in
22:47 5.5 °F 6.0 °F 1034.1 in Calm   5.0 mph 98 % 0.0 in
22:52 5.5 °F 6.0 °F 1034.1 in Calm   5.0 mph 98 % 0.0 in
22:53 5.5 °F 6.0 °F 1034.1 in Calm   5.0 mph 98 % 0.0 in
22:58 5.5 °F 6.0 °F 1034.1 in Calm     98 % 0.0 in
22:59 5.5 °F 6.0 °F 1034.1 in Calm     98 % 0.0 in
23:04 5.6 °F 6.0 °F 1034.1 in West 6.4 mph 6.4 mph 98 % 0.0 in
23:09 5.7 °F 6.0 °F 1034.1 in WSW 4.3 mph 6.4 mph 98 % 0.0 in
23:11 5.7 °F 6.0 °F 1034.1 in West 5.8 mph 7.6 mph 98 % 0.0 in
23:13 5.7 °F 6.0 °F 1034.1 in WSW 4.0 mph 7.6 mph 98 % 0.0 in
23:18 5.7 °F 6.0 °F 1034.1 in Calm   7.6 mph 98 % 0.0 in
23:22 5.8 °F 6.0 °F 1034.1 in Calm   6.9 mph 98 % 0.0 in
23:24 5.8 °F 6.0 °F 1034.1 in Calm   6.9 mph 98 % 0.0 in
23:29 5.8 °F 6.0 °F 1033.1 in Calm     98 % 0.0 in
23:31 5.8 °F 6.0 °F 1033.1 in Calm     98 % 0.0 in
23:36 5.9 °F 6.0 °F 1033.1 in West 4.3 mph 4.3 mph 98 % 0.0 in
23:38 5.9 °F 6.0 °F 1033.1 in WSW 7.6 mph 7.6 mph 98 % 0.0 in
23:42 6.1 °F 6.0 °F 1033.1 in Calm   7.6 mph 98 % 0.0 in
23:43 6.1 °F 6.0 °F 1033.1 in Calm   7.6 mph 98 % 0.0 in
23:48 6.1 °F 6.0 °F 1033.1 in Calm   4.0 mph 98 % 0.0 in
23:50 6.1 °F 6.0 °F 1033.1 in West 6.4 mph 6.4 mph 98 % 0.0 in
23:55 6.2 °F 6.0 °F 1034.1 in West 5.5 mph 9.0 mph 98 % 0.0 in
23:57 6.2 °F 6.0 °F 1034.1 in West 5.8 mph 9.3 mph 98 % 0.0 in
Le Gheer Warneton
Courtoisie de Weather Underground - 3 mb

Mise a jour : 21/02/2018 11:52:11
Généré par Cumulus 1.9.4 (1099)